Flag for Mexico Weather past 2 weeks in Mexico City, Federal District, Mexico

Now
61 °F

Broken clouds.


Feels Like: 61 °F
Forecast: 53 / 69 °F
Wind: 3 mph from North

Location: Mexico City / Licenci

Current Time: Jul 24, 2014 at 11:06:47 AM

Latest Report: Jul 24, 2014 at 10:21 AM


Visibility: 7 mi

Pressure: 30.38 "Hg

Humidity: 59%

Dew point: 46 °F

Location of Mexico CityLocation

Historic Weather in Mexico City — Graph

°F

Mexico City temperature yesterday

Maximum temperature yesterday: 72 °F (at 1:42 PM)
Minimum temperature yesterday: 57 °F (at 5:49 AM)
Average temperature yesterday: 63 °F

Past Weeks' High & Low Weather Summary

 TemperatureHumidityPressure
High81 °F (Jul 21, 5:10 PM)94% (Jul 11, 3:52 AM)30.46 "Hg (Jul 11, 3:52 AM)
Low54 °F (Jul 12, 5:48 AM)23% (Jul 21, 5:10 PM)29.56 "Hg (Jul 20, 7:27 PM)
Average63 °F68%30.25 "Hg
* Reported Jul 9 9:22 AM — Jul 24 9:20 AM, Mexico City, Weather by CustomWeather, © 2014

Note: Actual official high and low records may vary slightly from our data, if they occured in-between our weather recording intervals... More about our weather records

Advertising

Mexico City weather history for previous 24 hours

 ConditionsComfort  
Time TempWeatherWind HumidityBarometerVisibility
9:20 AM
Jul 24
59 °FBroken clouds.3 mph63%30.38 "Hg7 mi
8:20 AM55 °FScattered clouds.3 mph77%30.39 "Hg8 mi
7:22 AM54 °FPassing clouds.6 mph82%30.37 "Hg8 mi
5:45 AM54 °FPassing clouds.7 mph82%30.34 "Hg14 mi
4:48 AM55 °FMostly cloudy.6 mph77%30.36 "Hg14 mi
3:46 AM55 °FOvercast.9 mph77%29.92 "Hg14 mi
2:54 AM55 °FOvercast.No wind77%30.38 "Hg14 mi
1:54 AM57 °FPassing clouds.No wind82%30.37 "Hg14 mi
12:49 AM59 °FPartly cloudy.5 mph68%29.89 "Hg14 mi
11:45 PM
Jul 23
59 °FPartly cloudy.7 mph72%30.40 "Hg14 mi
10:47 PM59 °FPartly cloudy.10 mph72%30.39 "Hg12 mi
9:50 PM59 °FOvercast.12 mph72%30.39 "Hg10 mi
6:48 PM61 °FLight rain. Mostly cloudy.6 mph77%30.33 "Hg6 mi
5:57 PM63 °FThunderstorms. Mostly cloudy.6 mph64%30.31 "Hg6 mi
5:27 PM64 °FSleet. Cloudy.N/A60%30.29 "HgN/A
5:06 PM66 °FSleet. Mostly cloudy.16 mph64%N/A8 mi
5:03 PM66 °FThunderstorms. Mostly cloudy.15 mph56%30.29 "Hg8 mi
4:19 PM70 °FSleet. Cloudy.N/A46%N/AN/A
3:28 PM68 °FSleet. Cloudy.N/A49%30.31 "HgN/A
3:18 PMN/ASleet.N/AN/AN/AN/A
1:42 PM72 °FPartly sunny.9 mph41%30.36 "Hg6 mi
12:48 PM70 °FScattered clouds.10 mph46%29.88 "Hg6 mi
Weather by CustomWeather, © 2014

See weather overviewHow to use our weather pages